CW1490 Weather Reports


Display with metric or nautical units.
time (UTC)temp
F
wind
direction
speed
MPH
gust
MPH
rain 1hr
in
rain 24hr
in
rain mn
in
humidity
%
barometer
mb
20260504004511 42 250 3.0 6.0 0.00 0.00 0.00 68 1009.1
20260504004003 42 249 3.0 5.0 0.00 0.00 0.00 69 1009.0
20260504003501 42 229 2.0 4.0 0.00 0.00 0.00 68 1008.9
20260504003003 42 219 2.0 3.0 0.00 0.00 0.00 69 1008.8
20260504002503 43 238 1.0 4.0 0.00 0.00 0.00 69 1008.8
20260504002003 43 265 2.0 4.0 0.00 0.00 0.00 65 1008.7
20260504001510 43 250 0.0 3.0 0.00 0.00 0.00 66 1008.7
20260504001003 44 338 1.0 3.0 0.00 0.00 0.00 68 1008.6
20260504000502 45 247 1.0 4.0 0.00 0.00 0.00 65 1008.5
20260504000004 46 254 1.0 4.0 0.00 0.00 0.00 57 1008.6
20260503235502 46 249 2.0 4.0 0.00 0.00 0.00 56 1008.5
20260503235003 47 249 2.0 4.0 0.00 0.00 0.00 55 1008.4
20260503234504 48 241 2.0 3.0 0.00 0.00 0.00 51 1008.3
20260503234003 48 238 1.0 3.0 0.00 0.00 0.00 50 1008.3
20260503233509 48 229 1.0 2.0 0.00 0.00 0.00 46 1008.3
20260503233004 49 51 1.0 3.0 0.00 0.00 0.00 47 1008.3
20260503232502 49 309 0.0 5.0 0.00 0.00 0.00 46 1008.2
20260503232003 49 279 1.0 5.0 0.00 0.00 0.00 46 1008.2
20260503231504 50 329 2.0 5.0 0.00 0.00 0.00 44 1008.2
20260503231004 51 9 2.0 5.0 0.00 0.00 0.00 42 1008.2
20260503230503 51 341 2.0 10.0 0.00 0.00 0.00 41 1008.2
20260503230004 51 22 4.0 10.0 0.00 0.00 0.00 39 1008.2
20260503225503 51 57 1.0 10.0 0.00 0.00 0.00 41 1008.2
20260503225003 52 13 4.0 12.0 0.00 0.00 0.00 40 1008.2
20260503224505 52 36 6.0 12.0 0.00 0.00 0.00 38 1008.2
20260503224003 52 31 7.0 14.0 0.00 0.00 0.00 39 1008.2
20260503223505 52 15 5.0 14.0 0.00 0.00 0.00 40 1008.2
20260503223008 53 67 2.0 12.0 0.00 0.00 0.00 41 1008.2
20260503222505 53 28 5.0 14.0 0.00 0.00 0.00 37 1008.2
20260503222003 53 291 7.0 14.0 0.00 0.00 0.00 37 1008.2
20260503221503 53 331 2.0 13.0 0.00 0.00 0.00 42 1008.2
20260503221002 53 346 2.0 13.0 0.00 0.00 0.00 38 1008.2
20260503220505 53 28 6.0 10.0 0.00 0.00 0.00 39 1008.1
20260503220012 53 59 2.0 9.0 0.00 0.00 0.00 42 1008.2
20260503215504 52 13 5.0 12.0 0.00 0.00 0.00 40 1008.2
20260503215003 52 340 1.0 12.0 0.00 0.00 0.00 41 1008.1
20260503214512 52 238 3.0 11.0 0.00 0.00 0.00 42 1008.1
20260503214003 53 309 3.0 12.0 0.00 0.00 0.00 41 1008.1
20260503213505 53 49 6.0 15.0 0.00 0.00 0.00 39 1008.1
20260503213004 52 23 7.0 18.0 0.00 0.00 0.00 39 1008.1
20260503212504 52 47 5.0 18.0 0.00 0.00 0.00 40 1008.1
20260503212006 52 347 3.0 20.0 0.00 0.00 0.00 40 1008.1
20260503211508 53 336 7.0 23.0 0.00 0.00 0.00 38 1008.1
20260503211003 53 332 10.0 23.0 0.00 0.00 0.00 38 1008.1
20260503210504 52 11 10.0 17.0 0.00 0.00 0.00 38 1008.1
20260503210014 52 33 9.0 17.0 0.00 0.00 0.00 40 1008.0
20260503205504 53 313 7.0 16.0 0.00 0.00 0.00 39 1008.0
20260503205005 52 9 7.0 16.0 0.00 0.00 0.00 41 1008.0
20260503204518 52 316 2.0 15.0 0.00 0.00 0.00 43 1008.1
20260503204003 52 305 5.0 22.0 0.00 0.00 0.00 40 1008.0
20260503203502 53 317 6.0 22.0 0.00 0.00 0.00 39 1008.1
20260503203012 53 44 14.0 21.0 0.00 0.00 0.00 41 1008.0
20260503202504 52 18 4.0 20.0 0.00 0.00 0.00 42 1008.0
20260503202006 52 338 8.0 24.0 0.00 0.00 0.00 40 1008.1
20260503201508 52 20 11.0 24.0 0.00 0.00 0.00 42 1008.0
20260503201003 52 15 7.0 16.0 0.00 0.00 0.00 40 1008.1
20260503200502 52 344 8.0 18.0 0.00 0.00 0.00 41 1008.2
20260503200008 52 328 5.0 18.0 0.00 0.00 0.00 39 1008.2
20260503195503 53 321 7.0 15.0 0.00 0.00 0.00 42 1008.2
20260503195002 52 9 6.0 26.0 0.00 0.00 0.00 41 1008.3
20260503194512 52 313 12.0 26.0 0.00 0.00 0.00 40 1008.4
20260503194006 51 312 9.0 24.0 0.00 0.00 0.00 42 1008.4
20260503193505 51 340 11.0 31.0 0.00 0.00 0.00 40 1008.4
20260503193010 51 26 11.0 31.0 0.00 0.00 0.00 40 1008.5
20260503192503 51 34 16.0 28.0 0.00 0.00 0.00 41 1008.6
20260503192002 52 315 7.0 22.0 0.00 0.00 0.00 43 1008.5
20260503191512 52 291 8.0 16.0 0.00 0.00 0.00 41 1008.5
20260503191002 52 48 6.0 23.0 0.00 0.00 0.00 41 1008.5
20260503190505 52 324 10.0 23.0 0.00 0.00 0.00 41 1008.5
20260503190017 52 309 8.0 22.0 0.00 0.00 0.00 43 1008.4
20260503185504 52 26 7.0 22.0 0.00 0.00 0.00 46 1008.4
20260503185005 51 297 5.0 27.0 0.00 0.00 0.00 44 1008.5
20260503184513 51 313 7.0 27.0 0.00 0.00 0.00 42 1008.5
20260503184004 51 277 9.0 17.0 0.00 0.00 0.00 43 1008.5
20260503183504 51 300 6.0 26.0 0.00 0.00 0.00 44 1008.4
20260503183012 52 325 10.0 26.0 0.00 0.00 0.00 42 1008.4
20260503182503 52 25 9.0 24.0 0.00 0.00 0.00 42 1008.4
20260503182004 52 346 13.0 28.0 0.00 0.00 0.00 41 1008.5
20260503181517 52 54 15.0 28.0 0.00 0.00 0.00 41 1008.5
20260503181003 52 303 11.0 27.0 0.00 0.00 0.00 40 1008.3
20260503180506 52 16 10.0 24.0 0.00 0.00 0.00 40 1008.6
20260503180024 53 346 9.0 24.0 0.00 0.00 0.00 38 1008.6
20260503175511 54 265 4.0 24.0 0.00 0.00 0.00 41 1008.5
20260503175006 53 338 9.0 22.0 0.00 0.00 0.00 44 1008.5
20260503174516 53 42 14.0 22.0 0.00 0.00 0.00 41 1008.6
20260503174004 51 294 9.0 25.0 0.00 0.00 0.00 42 1008.5
20260503173504 51 20 9.0 33.0 0.00 0.00 0.00 44 1008.5
20260503173004 51 293 11.0 33.0 0.00 0.00 0.00 44 1008.5
20260503172507 52 55 19.0 33.0 0.00 0.00 0.00 41 1008.5
20260503172004 52 24 15.0 24.0 0.00 0.00 0.00 44 1008.2
20260503171510 52 303 11.0 22.0 0.00 0.00 0.00 43 1008.1
20260503171003 52 13 10.0 22.0 0.00 0.00 0.00 45 1008.1
20260503170503 51 9 7.0 30.0 0.00 0.00 0.00 43 1008.3
20260503151008 52 36 13.0 23.0 0.00 0.00 0.00 48 1008.4
20260503150507 51 50 6.0 27.0 0.00 0.00 0.00 50 1008.5
20260503131005 47 350 8.0 18.0 0.00 0.08 0.00 59 1009.1
20260503130507 46 38 7.0 18.0 0.00 0.08 0.00 61 1008.9
20260503110509 39 325 0.0 2.0 0.00 0.09 0.00 89 1009.0
20260503090504 37 51 2.0 3.0 0.00 0.11 0.00 87 1009.1
20260503081526 37 309 0.0 3.0 0.00 0.18 0.00 87 1009.5
20260503081003 37 9 0.0 3.0 0.00 0.19 0.00 88 1009.6
20260503080504 37 178 1.0 3.0 0.00 0.20 0.00 87 1009.7
20260503072507 37 325 1.0 3.0 0.00 0.23 0.00 86 1009.8
20260503072008 38 93 1.0 3.0 0.00 0.24 0.00 86 1009.9
20260503071520 38 332 2.0 3.0 0.00 0.24 0.00 86 1010.0
20260503071007 38 321 1.0 3.0 0.00 0.25 0.00 86 1010.1
20260503070508 38 321 1.0 2.0 0.00 0.25 0.00 86 1010.2
20260503055011 38 301 0.0 2.0 0.00 0.34 0.00 85 1010.8
20260503054535 38 51 0.0 3.0 0.00 0.34 0.00 85 1010.7
20260503054009 38 178 1.0 3.0 0.00 0.34 0.00 86 1010.8
20260503053509 38 243 1.0 2.0 0.00 0.34 0.00 85 1010.8
20260503053016 38 243 1.0 2.0 0.00 0.34 0.00 86 1010.9
20260503052504 38 232 1.0 2.0 0.00 0.35 0.00 86 1010.9
20260503052006 38 250 1.0 2.0 0.00 0.35 0.00 85 1011.0
20260503051515 38 265 0.0 3.0 0.00 0.35 0.00 85 1011.1
20260503051008 38 9 0.0 3.0 0.00 0.35 0.00 84 1011.0
20260503050505 38 316 1.0 3.0 0.00 0.36 0.00 84 1011.1
20260503050027 37 334 0.0 1.0 0.00 0.36 0.00 84 1011.3
20260503045509 38 137 0.0 3.0 0.00 0.36 0.00 85 1011.4
20260503045007 38 221 1.0 3.0 0.00 0.36 0.00 85 1011.4
20260503044522 38 275 1.0 3.0 0.00 0.36 0.00 86 1011.4
20260503044011 38 250 1.0 3.0 0.00 0.36 0.00 86 1011.5
20260503043511 38 238 1.0 2.0 0.00 0.36 0.00 85 1011.4
20260503043026 38 265 0.0 3.0 0.00 0.36 0.00 83 1011.4
20260503042513 38 9 1.0 3.0 0.00 0.36 0.00 84 1011.5
20260503042010 38 282 1.0 2.0 0.00 0.36 0.00 84 1011.6
20260503041526 38 291 1.0 2.0 0.00 0.36 0.00 84 1011.7
20260503041006 38 309 0.0 2.0 0.00 0.36 0.00 84 1011.7
20260503040512 38 325 1.0 2.0 0.00 0.36 0.00 84 1011.7
20260503040027 38 9 0.0 2.0 0.00 0.36 0.00 85 1011.8
20260503035507 39 221 0.0 2.0 0.00 0.36 0.36 84 1011.8
20260503035007 39 126 0.0 3.0 0.00 0.36 0.36 82 1011.8
20260503034520 39 9 0.0 4.0 0.00 0.36 0.36 78 1011.8
20260503034008 40 309 2.0 4.0 0.00 0.36 0.36 79 1011.7
20260503033507 39 9 1.0 3.0 0.00 0.36 0.36 82 1011.8
20260503033024 40 51 0.0 3.0 0.00 0.36 0.36 80 1011.8
20260503032511 41 291 0.0 3.0 0.00 0.36 0.36 79 1011.8
20260503032010 41 309 1.0 3.0 0.00 0.36 0.36 75 1011.8
20260503031528 40 291 2.0 3.0 0.00 0.36 0.36 76 1011.8
20260503031007 40 309 1.0 4.0 0.00 0.36 0.36 79 1011.8
20260503030511 40 338 1.0 4.0 0.00 0.36 0.36 79 1011.9
20260503030033 41 64 3.0 4.0 0.00 0.36 0.36 80 1011.9
20260503025510 41 279 1.0 3.0 0.00 0.36 0.36 80 1011.9
20260503025007 41 250 2.0 3.0 0.00 0.36 0.36 80 1011.9
20260503024520 41 9 0.0 3.0 0.00 0.36 0.36 79 1011.9
20260503024006 42 265 1.0 3.0 0.00 0.36 0.36 80 1011.9
20260503023509 42 221 1.0 3.0 0.00 0.36 0.36 80 1011.9
20260503023023 42 247 2.0 4.0 0.00 0.36 0.36 79 1011.9
20260503022508 42 265 3.0 4.0 0.00 0.36 0.36 79 1011.9
20260503022009 42 265 2.0 3.0 0.00 0.36 0.36 80 1012.0
20260503021524 42 221 1.0 2.0 0.00 0.36 0.36 78 1012.0
20260503021010 42 309 0.0 2.0 0.00 0.36 0.36 76 1011.9
20260503020512 42 34 0.0 4.0 0.00 0.36 0.36 78 1012.0
20260503020029 42 309 0.0 4.0 0.00 0.36 0.36 79 1012.2
20260503015508 43 232 1.0 4.0 0.00 0.36 0.36 80 1012.1
20260503015010 42 265 0.0 3.0 0.00 0.36 0.36 77 1012.1
20260503014531 42 298 0.0 3.0 0.00 0.36 0.36 78 1012.2
20260503014009 42 9 1.0 3.0 0.00 0.36 0.36 78 1012.1
20260503013508 42 9 0.0 4.0 0.00 0.36 0.36 79 1012.1
20260503013029 42 34 1.0 4.0 0.00 0.36 0.36 78 1012.0
20260503012509 42 121 1.0 4.0 0.00 0.36 0.36 76 1012.0
20260503012011 43 212 1.0 3.0 0.00 0.36 0.36 76 1012.0
20260503011532 43 291 1.0 3.0 0.00 0.36 0.36 72 1012.0
20260503011010 43 309 1.0 4.0 0.00 0.36 0.36 71 1012.0
20260503010511 43 247 2.0 4.0 0.00 0.36 0.36 71 1011.8
20260503010033 44 232 2.0 4.0 0.00 0.36 0.36 71 1011.7
20260503005509 44 254 1.0 4.0 0.00 0.36 0.36 69 1011.6
20260503005011 45 217 2.0 4.0 0.00 0.36 0.36 68 1011.6